Location: Çayiçi
(36.4667°N, 30.2333°E)
Time: 03:12:11
(UTC+00:00)

Meteor 2-2 Rocket - Pass Details

Date: 09 February 2023
Orbit: 853 x 927 km, 81.3° (Epoch: 01 April)

Event Time Altitude Azimuth Distance (km) Brightness Sun altitude
Rises 17:39:08 0° 350° (N) 3,446 7.5 -25.8°
Reaches altitude 10° 17:41:33 10° 350° (N) 2,513 6.8 -26.2°
Maximum altitude 17:47:16 83° 263° (W) 887 4.2 -27.4°
Enters shadow 17:51:25 20° 177° (S) 1,932 6.0 -28.2°
Exits shadow 17:55:06 - 176° (S) 3,331 7.2 -29.0°
Sets 17:55:31 0° 176° (S) 3,492 7.3 -29.0°
